SCP
0 0 -0 -0 -0 0 -0 -0 0 0 0 0 1 0 0 0 0 0 0 0 0 0 0 0 0 0 0 0 0 0 0 0 -0 0 0 0 0 -0
0 -0 -0 -0 0 -0 0 0 0 0 0 0 0 0 0 0 0 0 0 0 0 0 0 0 0 0 0 0 0 0 0 0 0 0 0 -0 -0 -0
0 0 -0 -0 -0 0 0 0 0 0 0 0 1 0 0 0 0 0 0 0 0 0 0 0 0 0 0 0 0 0 0 0 0 0 -0 -0 -0 -0
0 0 0 0 0 0 0 0 0 0 0 0 0 0 0 0 0 0 0 0 0 0 0 0 0 -0 0 0 0 -0 -0 0 -0 -0 -0 -0 -0 -0
0 0 0 0 0 0 0 0 0 0 0 0 0 0 0 0 0 0 0 0 0 0 0 0 0 0 0 0 0 0 0 -0 0 -0 -0 -0 -0 -0
0 -0 -0 0 0 0 0 0 0 0 0 0 0 0 0 0 0 0 0 0 0 0 0 0 0 0 0 0 0 0 0 0 -0 -0 -0 -0 -0 -0
-0 -0 0 0 0 0 0 0 0 0 0 0 0 0 0 0 0 0 0 0 0 0 0 0 0 0 0 0 0 0 -0 0 -0 -0 -0 -0 -0 0
-0 -0 0 0 0 0 0 0 0 0 0 0 0 0 0 0 0 0 0 0 0 0 0 0 0 0 0 0 0 0 -0 0 -0 -0 -0 -0 0 0
-0 -0 -0 0 0 0 0 0 0 0 0 0 0 0 0 0 0 0 0 0 0 0 0 0 0 0 0 0 0 0 -0 -0 -0 -0 -0 0 0 0
-0 0 -0 0 0 0 0 0 0 0 0 0 0 0 0 0 0 0 0 0 0 0 0 0 0 0 0 0 0 0 -0 0 -0 -0 0 0 0 0
-0 0 0 0 0 0 0 0 0 0 0 0 0 0 0 0 0 0 0 0 0 0 0 0 0 0 0 0 0 0 -0 0 0 0 0 0 0 0
-0 -0 0 0 -0 0 0 -0 0 0 0 0 0 0 0 0 0 0 0 0 0 0 0 0 0 0 0 0 0 -0 0 -0 0 0 0 0 0 0
0 0 0 0 0 0 0 0 0 0 0 0 0 0 0 0 0 0 0 0 0 0 0 0 0 0 0 0 -0 0 -0 -0 -0 0 0 0 0 0
0 0 0 0 0 0 0 0 0 0 0 0 0 0 0 0 0 0 0 0 0 0 0 0 0 -0 0 0 0 -0 -0 -0 0 0 0 0 0 0
0 0 0 0 0 0 0 0 0 0 0 0 0 0 0 0 0 0 0 0 0 0 0 0 0 -0 0 0 0 0 0 0 0 0 0 0 0 0
0 0 0 0 0 0 0 0 0 0 0 0 0 0 0 0 0 0 0 0 0 0 -0 0 0 -0 -0 -0 0 0 0 0 0 0 0 0 0 0
0 0 0 0 0 0 0 0 0 0 0 0 0 0 0 0 0 0 0 0 0 -0 -0 0 -0 0 0 0 -0 0 0 0 0 0 0 0 0 0
0 0 -0 0 0 0 0 0 -0 0 0 -0 -0 -0 -0 0 0 0 0 0 -0 -0 0 -0 -0 -0 0 0 -0 0 0 0 0 0 0 0 0 0
-0 0 -0 0 0 0 0 0 -0 0 -0 0 0 0 0 0 0 0 0 -0 -0 -0 -0 -0 -0 0 0 0 0 0 0 0 0 0 0 0 0 0
0 0 0 0 0 0 0 0 -0 0 0 0 0 0 0 0 0 0 -0 -0 0 -0 -0 -0 0 -0 0 0 0 0 0 0 0 0 0 0 0 0
0 0 0 0 0 0 0 0 0 0 0 0 0 0 0 0 0 -0 -0 -0 -0 -0 -0 0 0 0 0 0 0 0 0 0 0 0 0 0 0 0
0 0 0 0 0 0 0 0 0 0 0 0 0 -0 0 0 0 0 0 0 0 0 0 0 0 0 0 0 0 0 0 0 0 0 0 0 0 0
0 -0 -0 -0 -0 -0 0 0 0 0 -0 -0 -0 -0 -0 0 -0 0 0 0 0 0 0 0 0 0 0 0 0 0 0 0 0 0 0 0 0 0
Wind_Speed_500mb
18 21 19 19 20 20 19 22 20 23 20 23 25 29 29 29 29 29 26 32 37 36 39 41 37 38 37 37 30 36 37 37 36 28 24 24 26 20
20 20 20 19 21 22 22 20 20 19 23 25 28 32 32 32 32 26 28 34 37 37 40 44 41 41 40 39 38 39 41 40 32 26 25 23 20 21
21 18 19 20 21 21 26 23 19 19 23 27 30 31 29 30 32 25 30 37 38 36 43 45 41 48 44 44 43 40 42 34 31 24 23 21 20 14
30 26 20 16 22 24 26 25 22 24 27 34 33 33 31 31 35 36 37 36 38 39 43 44 42 48 52 50 47 42 36 35 33 24 23 20 14 12
38 32 26 19 19 25 26 27 23 25 27 36 39 37 36 33 44 43 41 41 41 38 43 48 46 59 61 46 43 39 39 34 27 25 19 16 13 11
38 37 32 20 21 23 29 28 27 27 31 34 43 48 45 40 48 52 47 40 56 74 69 64 61 58 48 41 38 40 38 31 25 22 17 12 12 13
20 39 27 23 23 25 34 28 32 35 33 37 53 52 54 58 59 60 59 53 67 78 67 63 57 48 41 40 44 41 34 26 21 17 15 14 14 15
21 25 25 25 26 27 32 39 32 39 38 50 59 59 63 70 57 68 73 83 74 59 64 59 50 41 42 38 44 36 29 24 21 18 17 17 16 16
17 22 23 24 29 32 37 40 43 34 29 43 55 66 71 64 65 83 75 68 76 70 65 55 51 44 35 40 40 30 29 27 22 20 17 16 15 18
14 18 24 30 31 34 36 34 33 30 25 39 49 58 61 62 68 87 66 61 67 67 58 55 52 28 30 35 33 32 27 25 22 20 18 17 19 20
12 18 22 36 36 35 39 41 42 36 33 37 45 47 57 55 72 67 64 65 72 64 53 43 35 30 29 35 34 29 27 26 24 22 21 21 23 26
21 24 24 32 37 35 36 41 45 42 40 43 45 42 57 59 62 68 62 74 77 67 45 26 35 32 19 32 30 29 29 29 27 26 25 25 27 32
23 28 32 29 33 38 42 46 51 46 41 42 43 50 59 62 64 53 51 67 64 27 50 26 36 32 16 20 31 30 30 31 29 29 29 31 34 37
30 33 34 33 36 35 35 37 41 41 41 44 51 59 60 57 58 51 39 35 25 23 45 30 31 30 17 17 16 28 30 31 30 31 34 36 41 43
33 35 34 33 34 31 33 40 40 34 43 50 54 53 47 54 51 48 39 35 35 18 42 34 22 29 21 16 17 16 21 25 27 31 38 43 47 48
40 38 34 35 36 38 39 40 34 39 47 52 48 53 43 47 39 36 24 22 18 21 34 35 30 33 24 23 19 21 23 19 27 35 40 45 49 52
46 45 45 48 49 43 35 33 37 41 42 53 60 51 47 40 41 39 25 26 20 19 30 39 31 31 31 29 25 26 27 31 32 34 41 43 44 49
38 39 44 41 38 34 34 36 35 51 42 44 40 36 35 36 32 30 27 28 27 22 22 25 29 29 29 35 38 34 33 34 34 35 41 45 48 45
28 31 29 34 28 29 32 35 44 37 36 36 37 35 36 36 34 32 31 29 30 28 27 27 28 29 32 36 28 33 37 34 36 40 42 47 52 52
28 25 26 25 25 29 30 32 37 33 33 33 35 33 32 33 30 30 31 31 32 32 32 31 35 37 40 40 39 36 45 52 45 45 47 48 55 65
26 25 25 25 24 28 35 29 32 32 33 33 31 32 33 33 33 33 34 36 35 35 37 40 41 42 41 40 47 50 46 52 52 60 61 51 54 57
24 28 26 24 28 30 31 25 27 33 35 37 37 35 33 34 34 34 36 36 38 42 43 42 39 41 42 47 54 53 49 48 61 61 67 69 72 62
20 22 20 25 26 29 30 30 29 28 32 35 36 37 36 38 38 39 40 41 42 44 45 44 44 45 50 53 55 56 55 55 49 57 70 72 80 83
Wind_Direction_500mb
236 236 230 207 202 208 212 200 190 171 168 173 168 172 170 166 172 174 176 173 174 175 178 181 182 172 166 170 171 166 162 161 160 161 153 145 157 146
233 236 235 223 202 194 202 198 196 175 162 173 173 169 166 170 175 170 175 172 174 174 177 181 180 171 171 171 169 162 163 166 174 156 153 157 157 178
227 225 239 224 207 186 194 195 198 179 165 154 163 172 168 175 170 170 167 168 168 174 173 180 178 174 172 167 157 164 171 177 158 167 167 168 182 207
214 222 223 225 200 190 187 195 208 187 170 161 159 166 171 177 170 168 168 166 167 169 176 185 177 178 169 160 167 173 166 156 168 173 178 189 204 225
220 223 218 216 198 192 188 196 185 166 158 159 158 166 159 170 164 164 163 165 165 160 177 179 172 167 165 171 169 166 168 171 170 181 189 197 218 235
226 215 214 217 206 200 191 182 167 165 164 163 173 160 159 162 164 158 151 157 167 169 168 166 168 167 167 157 168 172 168 172 179 187 192 209 223 240
224 201 211 209 200 194 191 174 173 169 165 173 170 165 160 161 161 156 152 154 153 156 158 160 162 152 155 167 166 166 170 177 184 191 202 215 224 230
152 180 191 194 192 183 189 172 177 174 175 171 171 169 165 167 164 157 154 151 142 164 158 152 158 159 168 171 176 175 181 192 196 200 209 217 224 232
172 186 180 176 174 168 161 173 170 183 184 185 180 179 174 177 164 154 156 158 156 159 156 158 161 156 172 181 180 191 190 194 200 208 216 225 235 242
174 186 184 178 174 177 173 172 168 175 190 187 185 177 181 171 169 168 165 163 155 154 167 166 167 172 172 186 186 189 194 198 205 215 224 235 244 252
168 165 178 182 179 180 176 177 174 174 178 188 181 180 179 173 176 181 173 167 162 168 164 170 173 174 186 187 193 196 201 206 214 224 234 245 257 265
135 157 160 168 178 177 180 167 156 158 166 172 173 177 180 183 178 177 172 171 166 169 169 167 168 172 181 200 204 206 209 215 225 235 248 259 270 276
137 128 133 138 154 161 163 166 161 155 159 165 163 165 179 179 175 181 184 174 167 174 189 172 180 178 179 202 213 216 219 229 238 248 259 268 274 277
122 136 144 150 154 157 162 159 154 153 158 166 169 171 177 179 169 148 157 164 184 193 187 171 177 182 182 191 203 224 231 242 254 262 272 273 272 275
122 115 121 142 154 158 158 157 158 168 163 164 169 172 166 158 164 170 168 176 176 182 182 181 183 195 193 197 213 221 227 253 258 265 270 273 282 285
119 117 119 127 141 154 150 158 166 168 164 164 164 154 155 163 162 171 175 171 188 190 190 199 203 199 210 221 229 236 246 231 274 271 269 271 275 280
126 120 121 126 130 132 142 154 159 158 153 158 159 167 168 164 174 184 185 177 177 189 199 206 208 208 215 217 238 246 251 257 263 262 273 274 273 274
138 134 133 132 133 133 139 144 154 153 150 157 162 163 166 171 180 187 190 197 197 197 202 212 222 232 243 251 251 258 258 262 267 268 266 265 273 277
155 150 151 147 147 150 148 147 153 157 163 163 167 171 176 182 190 196 200 206 210 213 216 218 228 234 244 253 266 271 275 266 269 270 271 267 272 282
176 162 166 165 160 157 161 164 168 172 175 173 180 185 186 193 205 206 211 214 218 224 227 231 238 243 244 254 265 267 276 272 271 272 272 273 275 278
173 179 184 179 179 175 165 172 176 182 185 188 190 195 201 205 213 214 218 221 224 228 235 239 245 250 253 261 263 266 276 284 283 283 286 276 278 279
189 188 186 188 190 190 189 186 185 192 196 199 202 207 211 212 216 221 222 228 236 236 241 247 250 254 256 255 261 268 274 279 284 279 281 284 282 276
186 190 197 204 199 199 199 205 204 207 209 211 211 215 221 225 229 230 233 237 240 244 250 255 254 253 255 260 266 268 271 277 277 281 289 292 292 294
Wind_Speed_850mb
18 21 19 19 20 20 19 22 20 23 20 23 25 29 29 29 29 29 26 32 37 36 39 41 37 38 37 37 30 36 37 37 36 28 24 24 26 20
20 20 20 19 21 22 22 20 20 19 23 25 28 32 32 32 32 26 28 34 37 37 40 44 41 41 40 39 38 39 41 40 32 26 25 23 20 21
21 18 19 20 21 21 26 23 19 19 23 27 30 31 29 30 32 25 30 37 38 36 43 45 41 48 44 44 43 40 42 34 31 24 23 21 20 14
30 26 20 16 22 24 26 25 22 24 27 34 33 33 31 31 35 36 37 36 38 39 43 44 42 48 52 50 47 42 36 35 33 24 23 20 14 12
38 32 26 19 19 25 26 27 23 25 27 36 39 37 36 33 44 43 41 41 41 38 43 48 46 59 61 46 43 39 39 34 27 25 19 16 13 11
38 37 32 20 21 23 29 28 27 27 31 34 43 48 45 40 48 52 47 40 56 74 69 64 61 58 48 41 38 40 38 31 25 22 17 12 12 13
20 39 27 23 23 25 34 28 32 35 33 37 53 52 54 58 59 60 59 53 67 78 67 63 57 48 41 40 44 41 34 26 21 17 15 14 14 15
21 25 25 25 26 27 32 39 32 39 38 50 59 59 63 70 57 68 73 83 74 59 64 59 50 41 42 38 44 36 29 24 21 18 17 17 16 16
17 22 23 24 29 32 37 40 43 34 29 43 55 66 71 64 65 83 75 68 76 70 65 55 51 44 35 40 40 30 29 27 22 20 17 16 15 18
14 18 24 30 31 34 36 34 33 30 25 39 49 58 61 62 68 87 66 61 67 67 58 55 52 28 30 35 33 32 27 25 22 20 18 17 19 20
12 18 22 36 36 35 39 41 42 36 33 37 45 47 57 55 72 67 64 65 72 64 53 43 35 30 29 35 34 29 27 26 24 22 21 21 23 26
21 24 24 32 37 35 36 41 45 42 40 43 45 42 57 59 62 68 62 74 77 67 45 26 35 32 19 32 30 29 29 29 27 26 25 25 27 32
23 28 32 29 33 38 42 46 51 46 41 42 43 50 59 62 64 53 51 67 64 27 50 26 36 32 16 20 31 30 30 31 29 29 29 31 34 37
30 33 34 33 36 35 35 37 41 41 41 44 51 59 60 57 58 51 39 35 25 23 45 30 31 30 17 17 16 28 30 31 30 31 34 36 41 43
33 35 34 33 34 31 33 40 40 34 43 50 54 53 47 54 51 48 39 35 35 18 42 34 22 29 21 16 17 16 21 25 27 31 38 43 47 48
40 38 34 35 36 38 39 40 34 39 47 52 48 53 43 47 39 36 24 22 18 21 34 35 30 33 24 23 19 21 23 19 27 35 40 45 49 52
46 45 45 48 49 43 35 33 37 41 42 53 60 51 47 40 41 39 25 26 20 19 30 39 31 31 31 29 25 26 27 31 32 34 41 43 44 49
38 39 44 41 38 34 34 36 35 51 42 44 40 36 35 36 32 30 27 28 27 22 22 25 29 29 29 35 38 34 33 34 34 35 41 45 48 45
28 31 29 34 28 29 32 35 44 37 36 36 37 35 36 36 34 32 31 29 30 28 27 27 28 29 32 36 28 33 37 34 36 40 42 47 52 52
28 25 26 25 25 29 30 32 37 33 33 33 35 33 32 33 30 30 31 31 32 32 32 31 35 37 40 40 39 36 45 52 45 45 47 48 55 65
26 25 25 25 24 28 35 29 32 32 33 33 31 32 33 33 33 33 34 36 35 35 37 40 41 42 41 40 47 50 46 52 52 60 61 51 54 57
24 28 26 24 28 30 31 25 27 33 35 37 37 35 33 34 34 34 36 36 38 42 43 42 39 41 42 47 54 53 49 48 61 61 67 69 72 62
20 22 20 25 26 29 30 30 29 28 32 35 36 37 36 38 38 39 40 41 42 44 45 44 44 45 50 53 55 56 55 55 49 57 70 72 80 83
Wind_Direction_850mb
236 236 230 207 202 208 212 200 190 171 168 173 168 172 170 166 172 174 176 173 174 175 178 181 182 172 166 170 171 166 162 161 160 161 153 145 157 146
233 236 235 223 202 194 202 198 196 175 162 173 173 169 166 170 175 170 175 172 174 174 177 181 180 171 171 171 169 162 163 166 174 156 153 157 157 178
227 225 239 224 207 186 194 195 198 179 165 154 163 172 168 175 170 170 167 168 168 174 173 180 178 174 172 167 157 164 171 177 158 167 167 168 182 207
214 222 223 225 200 190 187 195 208 187 170 161 159 166 171 177 170 168 168 166 167 169 176 185 177 178 169 160 167 173 166 156 168 173 178 189 204 225
220 223 218 216 198 192 188 196 185 166 158 159 158 166 159 170 164 164 163 165 165 160 177 179 172 167 165 171 169 166 168 171 170 181 189 197 218 235
226 215 214 217 206 200 191 182 167 165 164 163 173 160 159 162 164 158 151 157 167 169 168 166 168 167 167 157 168 172 168 172 179 187 192 209 223 240
224 201 211 209 200 194 191 174 173 169 165 173 170 165 160 161 161 156 152 154 153 156 158 160 162 152 155 167 166 166 170 177 184 191 202 215 224 230
152 180 191 194 192 183 189 172 177 174 175 171 171 169 165 167 164 157 154 151 142 164 158 152 158 159 168 171 176 175 181 192 196 200 209 217 224 232
172 186 180 176 174 168 161 173 170 183 184 185 180 179 174 177 164 154 156 158 156 159 156 158 161 156 172 181 180 191 190 194 200 208 216 225 235 242
174 186 184 178 174 177 173 172 168 175 190 187 185 177 181 171 169 168 165 163 155 154 167 166 167 172 172 186 186 189 194 198 205 215 224 235 244 252
168 165 178 182 179 180 176 177 174 174 178 188 181 180 179 173 176 181 173 167 162 168 164 170 173 174 186 187 193 196 201 206 214 224 234 245 257 265
135 157 160 168 178 177 180 167 156 158 166 172 173 177 180 183 178 177 172 171 166 169 169 167 168 172 181 200 204 206 209 215 225 235 248 259 270 276
137 128 133 138 154 161 163 166 161 155 159 165 163 165 179 179 175 181 184 174 167 174 189 172 180 178 179 202 213 216 219 229 238 248 259 268 274 277
122 136 144 150 154 157 162 159 154 153 158 166 169 171 177 179 169 148 157 164 184 193 187 171 177 182 182 191 203 224 231 242 254 262 272 273 272 275
122 115 121 142 154 158 158 157 158 168 163 164 169 172 166 158 164 170 168 176 176 182 182 181 183 195 193 197 213 221 227 253 258 265 270 273 282 285
119 117 119 127 141 154 150 158 166 168 164 164 164 154 155 163 162 171 175 171 188 190 190 199 203 199 210 221 229 236 246 231 274 271 269 271 275 280
126 120 121 126 130 132 142 154 159 158 153 158 159 167 168 164 174 184 185 177 177 189 199 206 208 208 215 217 238 246 251 257 263 262 273 274 273 274
138 134 133 132 133 133 139 144 154 153 150 157 162 163 166 171 180 187 190 197 197 197 202 212 222 232 243 251 251 258 258 262 267 268 266 265 273 277
155 150 151 147 147 150 148 147 153 157 163 163 167 171 176 182 190 196 200 206 210 213 216 218 228 234 244 253 266 271 275 266 269 270 271 267 272 282
176 162 166 165 160 157 161 164 168 172 175 173 180 185 186 193 205 206 211 214 218 224 227 231 238 243 244 254 265 267 276 272 271 272 272 273 275 278
173 179 184 179 179 175 165 172 176 182 185 188 190 195 201 205 213 214 218 221 224 228 235 239 245 250 253 261 263 266 276 284 283 283 286 276 278 279
189 188 186 188 190 190 189 186 185 192 196 199 202 207 211 212 216 221 222 228 236 236 241 247 250 254 256 255 261 268 274 279 284 279 281 284 282 276
186 190 197 204 199 199 199 205 204 207 209 211 211 215 221 225 229 230 233 237 240 244 250 255 254 253 255 260 266 268 271 277 277 281 289 292 292 294